Time,TemperatureF,DewpointF,PressureIn,WindDirection,WindDirectionDegrees,WindSpeedMPH,WindSpeedGustMPH,Humidity,HourlyPrecipIn,Conditions,Clouds,dailyrainin,SoftwareType,DateUTC
2013-01-26 00:00:00,6.6,3.6,30.15,West,279,1.0,5.0,87,0.00,,SKC,0.00,VWS V14.01,2013-01-26 06:00:00,
2013-01-26 00:01:00,6.9,3.9,30.12,WNW,282,2.0,6.0,87,0.00,,SKC,0.00,VWS V14.01,2013-01-26 06:01:00,
2013-01-26 00:05:00,6.7,3.7,30.15,WNW,288,1.0,4.0,87,0.00,,SKC,0.00,VWS V14.01,2013-01-26 06:05:00,
2013-01-26 00:06:00,7.0,4.0,30.12,West,281,1.0,5.0,87,0.00,,SKC,0.00,VWS V14.01,2013-01-26 06:06:00,
2013-01-26 00:10:00,6.5,3.5,30.15,WNW,283,1.0,3.0,87,0.00,,SKC,0.00,VWS V14.01,2013-01-26 06:10:00,
2013-01-26 00:11:00,7.0,4.0,30.12,West,280,1.0,4.0,87,0.00,,SKC,0.00,VWS V14.01,2013-01-26 06:11:00,
2013-01-26 00:15:00,6.4,3.4,30.15,West,269,1.0,3.0,87,0.00,,SKC,0.00,VWS V14.01,2013-01-26 06:15:00,
2013-01-26 00:16:00,7.1,4.1,30.12,West,280,1.0,3.0,87,0.00,,SKC,0.00,VWS V14.01,2013-01-26 06:16:00,
2013-01-26 00:20:00,6.4,3.4,30.15,West,263,0.0,4.0,87,0.00,,SKC,0.00,VWS V14.01,2013-01-26 06:20:00,
2013-01-26 00:21:00,7.1,4.1,30.14,WNW,287,5.0,5.0,87,0.00,,SKC,0.00,VWS V14.01,2013-01-26 06:21:00,
2013-01-26 00:25:00,6.3,3.3,30.15,West,260,1.0,5.0,87,0.00,,SKC,0.00,VWS V14.01,2013-01-26 06:25:00,
2013-01-26 00:26:00,7.1,4.1,30.14,West,277,1.0,5.0,87,0.00,,SKC,0.00,VWS V14.01,2013-01-26 06:26:00,
2013-01-26 00:30:00,6.3,3.3,30.16,WSW,256,1.0,3.0,87,0.00,,SKC,0.00,VWS V14.01,2013-01-26 06:30:00,
2013-01-26 00:31:00,7.0,4.0,30.14,West,279,1.0,4.0,87,0.00,,SKC,0.00,VWS V14.01,2013-01-26 06:31:00,
2013-01-26 00:35:00,6.2,3.2,30.16,West,271,1.0,3.0,87,0.00,,SKC,0.00,VWS V14.01,2013-01-26 06:35:00,
2013-01-26 00:36:00,7.0,4.0,30.14,WSW,254,1.0,3.0,87,0.00,,SKC,0.00,VWS V14.01,2013-01-26 06:36:00,
2013-01-26 00:40:00,6.1,3.1,30.16,West,279,0.0,3.0,87,0.00,,SKC,0.00,VWS V14.01,2013-01-26 06:40:00,
2013-01-26 00:41:00,7.0,4.0,30.14,WSW,248,0.0,4.0,87,0.00,,SKC,0.00,VWS V14.01,2013-01-26 06:41:00,
2013-01-26 00:45:00,6.0,3.0,30.17,West,273,1.0,4.0,87,0.00,,SKC,0.00,VWS V14.01,2013-01-26 06:45:00,
2013-01-26 00:46:00,6.7,3.4,30.14,West,267,2.0,4.0,86,0.00,,SKC,0.00,VWS V14.01,2013-01-26 06:46:00,
2013-01-26 00:50:00,5.9,2.9,30.17,West,281,1.0,2.0,87,0.00,,SKC,0.00,VWS V14.01,2013-01-26 06:50:00,
2013-01-26 00:51:00,6.6,3.6,30.15,West,269,1.0,4.0,87,0.00,,SKC,0.00,VWS V14.01,2013-01-26 06:51:00,
2013-01-26 00:55:00,5.7,2.7,30.17,WNW,286,0.0,1.0,87,0.00,,SKC,0.00,VWS V14.01,2013-01-26 06:55:00,
2013-01-26 00:56:00,6.7,3.7,30.15,West,267,0.0,3.0,87,0.00,,SKC,0.00,VWS V14.01,2013-01-26 06:56:00,
2013-01-26 01:00:00,5.5,2.5,30.18,West,279,1.0,2.0,87,0.00,,SKC,0.00,VWS V14.01,2013-01-26 07:00:00,
2013-01-26 01:01:00,6.6,3.6,30.15,West,277,5.0,5.0,87,0.00,,SKC,0.00,VWS V14.01,2013-01-26 07:01:00,
2013-01-26 01:05:00,5.3,2.3,30.18,West,281,0.0,2.0,87,0.00,,SKC,0.00,VWS V14.01,2013-01-26 07:05:00,
2013-01-26 01:06:00,6.7,3.7,30.15,West,274,1.0,4.0,87,0.00,,SKC,0.00,VWS V14.01,2013-01-26 07:06:00,
2013-01-26 01:10:00,5.1,2.1,30.18,West,259,0.0,0.0,87,0.00,,SKC,0.00,VWS V14.01,2013-01-26 07:10:00,
2013-01-26 01:11:00,6.5,3.5,30.15,WNW,290,1.0,3.0,87,0.00,,SKC,0.00,VWS V14.01,2013-01-26 07:11:00,
2013-01-26 01:15:00,5.1,2.3,30.18,WSW,241,1.0,4.0,88,0.00,,SKC,0.00,VWS V14.01,2013-01-26 07:15:00,
2013-01-26 01:16:00,6.4,3.4,30.15,WNW,288,1.0,3.0,87,0.00,,SKC,0.00,VWS V14.01,2013-01-26 07:16:00,
2013-01-26 01:20:00,5.1,2.3,30.18,WNW,288,1.0,4.0,88,0.00,,SKC,0.00,VWS V14.01,2013-01-26 07:20:00,
2013-01-26 01:21:00,6.5,3.5,30.15,West,261,0.0,4.0,87,0.00,,SKC,0.00,VWS V14.01,2013-01-26 07:21:00,
2013-01-26 01:25:00,5.0,2.2,30.18,WNW,283,2.0,3.0,88,0.00,,SKC,0.00,VWS V14.01,2013-01-26 07:25:00,
2013-01-26 01:26:00,6.3,3.3,30.15,West,275,4.0,4.0,87,0.00,,SKC,0.00,VWS V14.01,2013-01-26 07:26:00,
2013-01-26 01:30:00,4.9,2.1,30.19,West,271,0.0,2.0,88,0.00,,SKC,0.00,VWS V14.01,2013-01-26 07:30:00,
2013-01-26 01:31:00,6.3,3.3,30.15,WSW,245,2.0,2.0,87,0.00,,SKC,0.00,VWS V14.01,2013-01-26 07:31:00,
2013-01-26 01:35:00,4.8,2.0,30.19,West,273,0.0,3.0,88,0.00,,SKC,0.00,VWS V14.01,2013-01-26 07:35:00,
2013-01-26 01:36:00,6.3,3.3,30.16,West,271,0.0,3.0,87,0.00,,SKC,0.00,VWS V14.01,2013-01-26 07:36:00,
2013-01-26 01:40:00,4.8,2.0,30.19,West,268,0.0,2.0,88,0.00,,SKC,0.00,VWS V14.01,2013-01-26 07:40:00,
2013-01-26 01:41:00,6.1,3.1,30.16,WNW,284,1.0,3.0,87,0.00,,SKC,0.00,VWS V14.01,2013-01-26 07:41:00,
2013-01-26 01:45:00,4.8,2.0,30.19,West,281,1.0,3.0,88,0.00,,SKC,0.00,VWS V14.01,2013-01-26 07:45:00,
2013-01-26 01:46:00,6.1,3.1,30.17,WNW,283,2.0,4.0,87,0.00,,SKC,0.00,VWS V14.01,2013-01-26 07:46:00,
2013-01-26 01:50:00,4.8,2.0,30.19,West,280,1.0,3.0,88,0.00,,SKC,0.00,VWS V14.01,2013-01-26 07:50:00,
2013-01-26 01:51:00,5.9,2.9,30.17,West,279,1.0,2.0,87,0.00,,SKC,0.00,VWS V14.01,2013-01-26 07:51:00,
2013-01-26 01:55:00,5.0,2.2,30.19,West,259,1.0,3.0,88,0.00,,SKC,0.00,VWS V14.01,2013-01-26 07:55:00,
2013-01-26 01:56:00,5.8,2.8,30.17,West,275,0.0,1.0,87,0.00,,SKC,0.00,VWS V14.01,2013-01-26 07:56:00,
2013-01-26 02:00:00,5.1,2.3,30.19,West,279,1.0,2.0,88,0.00,,SKC,0.00,VWS V14.01,2013-01-26 08:00:00,
2013-01-26 02:01:00,5.5,2.5,30.18,WNW,287,1.0,2.0,87,0.00,,SKC,0.00,VWS V14.01,2013-01-26 08:01:00,
2013-01-26 02:05:00,5.3,2.5,30.19,WNW,287,1.0,4.0,88,0.00,,SKC,0.00,VWS V14.01,2013-01-26 08:05:00,
2013-01-26 02:06:00,5.4,2.4,30.18,WNW,283,0.0,2.0,87,0.00,,SKC,0.00,VWS V14.01,2013-01-26 08:06:00,
2013-01-26 02:10:00,5.3,2.5,30.19,WNW,303,1.0,2.0,88,0.00,,SKC,0.00,VWS V14.01,2013-01-26 08:10:00,
2013-01-26 02:11:00,5.1,2.1,30.18,West,270,0.0,0.0,87,0.00,,SKC,0.00,VWS V14.01,2013-01-26 08:11:00,
2013-01-26 02:15:00,5.4,2.6,30.19,West,279,1.0,3.0,88,0.00,,SKC,0.00,VWS V14.01,2013-01-26 08:15:00,
2013-01-26 02:16:00,5.1,2.3,30.18,West,275,1.0,4.0,88,0.00,,SKC,0.00,VWS V14.01,2013-01-26 08:16:00,
2013-01-26 02:20:00,5.5,2.7,30.19,West,269,1.0,3.0,88,0.00,,SKC,0.00,VWS V14.01,2013-01-26 08:20:00,
2013-01-26 02:22:00,5.1,2.3,30.18,WNW,288,2.0,4.0,88,0.00,,SKC,0.00,VWS V14.01,2013-01-26 08:22:00,
2013-01-26 02:25:00,5.6,2.8,30.19,WNW,282,0.0,3.0,88,0.00,,SKC,0.00,VWS V14.01,2013-01-26 08:25:00,
2013-01-26 02:27:00,5.0,2.2,30.18,West,279,0.0,2.0,88,0.00,,SKC,0.00,VWS V14.01,2013-01-26 08:27:00,
2013-01-26 02:30:00,5.7,2.9,30.19,West,269,0.0,2.0,88,0.00,,SKC,0.00,VWS V14.01,2013-01-26 08:30:00,
2013-01-26 02:32:00,4.9,2.1,30.19,West,271,0.0,2.0,88,0.00,,SKC,0.00,VWS V14.01,2013-01-26 08:32:00,
2013-01-26 02:35:00,5.8,3.0,30.19,West,279,2.0,3.0,88,0.00,,SKC,0.00,VWS V14.01,2013-01-26 08:35:00,
2013-01-26 02:37:00,4.8,2.0,30.19,West,277,2.0,3.0,88,0.00,,SKC,0.00,VWS V14.01,2013-01-26 08:37:00,
2013-01-26 02:40:00,5.9,3.1,30.19,WNW,282,1.0,3.0,88,0.00,,SKC,0.00,VWS V14.01,2013-01-26 08:40:00,
2013-01-26 02:42:00,4.8,2.0,30.19,West,268,0.0,2.0,88,0.00,,SKC,0.00,VWS V14.01,2013-01-26 08:42:00,
2013-01-26 02:45:00,6.0,3.2,30.19,WNW,303,1.0,3.0,88,0.00,,SKC,0.00,VWS V14.01,2013-01-26 08:45:00,
2013-01-26 02:47:00,4.8,2.0,30.19,West,281,0.0,3.0,88,0.00,,SKC,0.00,VWS V14.01,2013-01-26 08:47:00,
2013-01-26 02:50:00,6.0,3.2,30.19,WNW,287,2.0,2.0,88,0.00,,SKC,0.00,VWS V14.01,2013-01-26 08:50:00,
2013-01-26 02:52:00,4.8,2.0,30.19,West,276,1.0,3.0,88,0.00,,SKC,0.00,VWS V14.01,2013-01-26 08:52:00,
2013-01-26 02:55:00,6.1,3.3,30.19,West,279,1.0,2.0,88,0.00,,SKC,0.00,VWS V14.01,2013-01-26 08:55:00,
2013-01-26 02:57:00,5.0,2.2,30.19,West,259,1.0,3.0,88,0.00,,SKC,0.00,VWS V14.01,2013-01-26 08:57:00,
2013-01-26 03:00:00,6.1,3.3,30.19,WSW,252,0.0,2.0,88,0.00,,SKC,0.00,VWS V14.01,2013-01-26 09:00:00,
2013-01-26 03:02:00,5.1,2.3,30.19,West,279,1.0,2.0,88,0.00,,SKC,0.00,VWS V14.01,2013-01-26 09:02:00,
2013-01-26 03:05:00,6.1,3.1,30.19,West,267,1.0,3.0,87,0.00,,SKC,0.00,VWS V14.01,2013-01-26 09:05:00,
2013-01-26 03:07:00,5.2,2.4,30.19,WNW,287,1.0,4.0,88,0.00,,SKC,0.00,VWS V14.01,2013-01-26 09:07:00,
2013-01-26 03:10:00,6.0,3.0,30.19,West,271,0.0,3.0,87,0.00,,SKC,0.00,VWS V14.01,2013-01-26 09:10:00,
2013-01-26 03:12:00,5.4,2.6,30.19,West,280,2.0,2.0,88,0.00,,SKC,0.00,VWS V14.01,2013-01-26 09:12:00,
2013-01-26 03:15:00,5.8,2.8,30.20,NNW,343,0.0,1.0,87,0.00,,SKC,0.00,VWS V14.01,2013-01-26 09:15:00,
2013-01-26 03:17:00,5.4,2.6,30.19,West,279,0.0,3.0,88,0.00,,SKC,0.00,VWS V14.01,2013-01-26 09:17:00,
2013-01-26 03:20:00,5.6,2.6,30.20,WNW,298,0.0,0.0,87,0.00,,SKC,0.00,VWS V14.01,2013-01-26 09:20:00,
2013-01-26 03:22:00,5.5,2.7,30.19,West,269,1.0,3.0,88,0.00,,SKC,0.00,VWS V14.01,2013-01-26 09:22:00,
2013-01-26 03:25:00,5.4,2.4,30.20,WNW,286,0.0,1.0,87,0.00,,SKC,0.00,VWS V14.01,2013-01-26 09:25:00,
2013-01-26 03:27:00,5.6,2.8,30.19,WNW,283,1.0,3.0,88,0.00,,SKC,0.00,VWS V14.01,2013-01-26 09:27:00,
2013-01-26 03:30:00,5.2,2.2,30.19,WNW,286,0.0,0.0,87,0.00,,SKC,0.00,VWS V14.01,2013-01-26 09:30:00,
2013-01-26 03:32:00,5.7,2.9,30.19,West,269,0.0,2.0,88,0.00,,SKC,0.00,VWS V14.01,2013-01-26 09:32:00,
2013-01-26 03:35:00,5.1,2.3,30.19,WNW,283,1.0,2.0,88,0.00,,SKC,0.00,VWS V14.01,2013-01-26 09:35:00,
2013-01-26 03:37:00,5.8,3.0,30.19,West,275,1.0,3.0,88,0.00,,SKC,0.00,VWS V14.01,2013-01-26 09:37:00,
2013-01-26 03:40:00,4.9,2.1,30.19,West,277,0.0,1.0,88,0.00,,SKC,0.00,VWS V14.01,2013-01-26 09:40:00,
2013-01-26 03:42:00,5.9,3.1,30.19,WNW,282,1.0,3.0,88,0.00,,SKC,0.00,VWS V14.01,2013-01-26 09:42:00,
2013-01-26 03:45:00,4.8,2.0,30.20,WNW,284,1.0,1.0,88,0.00,,SKC,0.00,VWS V14.01,2013-01-26 09:45:00,
2013-01-26 03:47:00,6.0,3.2,30.19,WNW,303,1.0,3.0,88,0.00,,SKC,0.00,VWS V14.01,2013-01-26 09:47:00,
2013-01-26 03:50:00,4.7,1.9,30.20,West,278,0.0,1.0,88,0.00,,SKC,0.00,VWS V14.01,2013-01-26 09:50:00,
2013-01-26 03:52:00,6.0,3.2,30.19,WNW,287,1.0,2.0,88,0.00,,SKC,0.00,VWS V14.01,2013-01-26 09:52:00,
2013-01-26 03:55:00,4.7,1.9,30.20,West,280,0.0,2.0,88,0.00,,SKC,0.00,VWS V14.01,2013-01-26 09:55:00,
2013-01-26 03:57:00,6.1,3.3,30.19,West,279,1.0,2.0,88,0.00,,SKC,0.00,VWS V14.01,2013-01-26 09:57:00,
2013-01-26 04:00:00,4.6,1.8,30.21,West,279,0.0,0.0,88,0.00,,SKC,0.00,VWS V14.01,2013-01-26 10:00:00,
2013-01-26 04:02:00,6.1,3.3,30.19,West,263,0.0,0.0,88,0.00,,SKC,0.00,VWS V14.01,2013-01-26 10:02:00,
2013-01-26 04:05:00,4.4,1.6,30.21,West,276,0.0,0.0,88,0.00,,SKC,0.00,VWS V14.01,2013-01-26 10:05:00,
2013-01-26 04:07:00,6.1,3.1,30.19,West,267,1.0,1.0,87,0.00,,SKC,0.00,VWS V14.01,2013-01-26 10:07:00,
2013-01-26 04:10:00,4.2,1.4,30.21,West,269,0.0,0.0,88,0.00,,SKC,0.00,VWS V14.01,2013-01-26 10:10:00,
2013-01-26 04:12:00,6.0,3.0,30.19,WSW,250,0.0,0.0,87,0.00,,SKC,0.00,VWS V14.01,2013-01-26 10:12:00,
2013-01-26 04:15:00,4.2,1.7,30.21,West,269,0.0,0.0,89,0.00,,SKC,0.00,VWS V14.01,2013-01-26 10:15:00,
2013-01-26 04:17:00,5.8,2.8,30.20,NNW,343,0.0,0.0,87,0.00,,SKC,0.00,VWS V14.01,2013-01-26 10:17:00,
2013-01-26 04:20:00,4.1,1.6,30.21,West,269,0.0,0.0,89,0.00,,SKC,0.00,VWS V14.01,2013-01-26 10:20:00,
2013-01-26 04:22:00,5.6,2.6,30.20,WNW,298,0.0,0.0,87,0.00,,SKC,0.00,VWS V14.01,2013-01-26 10:22:00,
2013-01-26 04:25:00,4.0,1.5,30.21,West,269,0.0,0.0,89,0.00,,SKC,0.00,VWS V14.01,2013-01-26 10:25:00,
2013-01-26 04:27:00,5.4,2.4,30.20,WNW,286,0.0,0.0,87,0.00,,SKC,0.00,VWS V14.01,2013-01-26 10:27:00,
2013-01-26 04:30:00,3.6,0.9,30.22,West,269,0.0,0.0,88,0.00,,SKC,0.00,VWS V14.01,2013-01-26 10:30:00,
2013-01-26 04:32:00,5.2,2.2,30.19,WNW,285,0.0,0.0,87,0.00,,SKC,0.00,VWS V14.01,2013-01-26 10:32:00,
2013-01-26 04:35:00,3.2,0.5,30.22,West,269,0.0,0.0,88,0.00,,SKC,0.00,VWS V14.01,2013-01-26 10:35:00,
2013-01-26 04:37:00,5.1,2.3,30.19,WNW,283,0.0,1.0,88,0.00,,SKC,0.00,VWS V14.01,2013-01-26 10:37:00,
2013-01-26 04:40:00,3.2,0.7,30.22,West,273,0.0,0.0,89,0.00,,SKC,0.00,VWS V14.01,2013-01-26 10:40:00,
2013-01-26 04:42:00,4.9,2.1,30.19,West,277,0.0,0.0,88,0.00,,SKC,0.00,VWS V14.01,2013-01-26 10:42:00,
2013-01-26 04:45:00,3.1,0.6,30.22,West,273,0.0,0.0,89,0.00,,SKC,0.00,VWS V14.01,2013-01-26 10:45:00,
2013-01-26 04:47:00,4.8,2.0,30.20,West,279,1.0,1.0,88,0.00,,SKC,0.00,VWS V14.01,2013-01-26 10:47:00,
2013-01-26 04:50:00,3.1,0.6,30.22,WNW,286,0.0,0.0,89,0.00,,SKC,0.00,VWS V14.01,2013-01-26 10:50:00,
2013-01-26 04:52:00,4.7,1.9,30.20,West,279,1.0,1.0,88,0.00,,SKC,0.00,VWS V14.01,2013-01-26 10:52:00,
2013-01-26 04:55:00,3.1,0.6,30.22,WNW,286,0.0,0.0,89,0.00,,SKC,0.00,VWS V14.01,2013-01-26 10:55:00,
2013-01-26 04:57:00,4.7,1.9,30.20,West,280,0.0,0.0,88,0.00,,SKC,0.00,VWS V14.01,2013-01-26 10:57:00,
2013-01-26 05:00:00,3.0,0.5,30.22,WNW,286,0.0,0.0,89,0.00,,SKC,0.00,VWS V14.01,2013-01-26 11:00:00,
2013-01-26 05:02:00,4.6,1.8,30.21,West,279,0.0,0.0,88,0.00,,SKC,0.00,VWS V14.01,2013-01-26 11:02:00,
2013-01-26 05:05:00,2.9,0.4,30.22,WNW,286,0.0,0.0,89,0.00,,SKC,0.00,VWS V14.01,2013-01-26 11:05:00,
2013-01-26 05:07:00,4.4,1.6,30.21,West,275,0.0,0.0,88,0.00,,SKC,0.00,VWS V14.01,2013-01-26 11:07:00,
2013-01-26 05:10:00,2.5,0.0,30.22,WNW,286,0.0,0.0,89,0.00,,SKC,0.00,VWS V14.01,2013-01-26 11:10:00,
2013-01-26 05:12:00,4.2,1.4,30.21,West,269,0.0,0.0,88,0.00,,SKC,0.00,VWS V14.01,2013-01-26 11:12:00,
2013-01-26 05:15:00,2.1,-0.6,30.23,WNW,286,0.0,0.0,88,0.00,,SKC,0.00,VWS V14.01,2013-01-26 11:15:00,
2013-01-26 05:17:00,4.2,1.7,30.21,West,269,0.0,0.0,89,0.00,,SKC,0.00,VWS V14.01,2013-01-26 11:17:00,
2013-01-26 05:20:00,1.8,-0.9,30.23,WNW,286,0.0,0.0,88,0.00,,SKC,0.00,VWS V14.01,2013-01-26 11:20:00,
2013-01-26 05:22:00,4.1,1.6,30.21,West,269,0.0,0.0,89,0.00,,SKC,0.00,VWS V14.01,2013-01-26 11:22:00,
2013-01-26 05:25:00,1.1,-1.9,30.23,WNW,286,0.0,0.0,87,0.00,,SKC,0.00,VWS V14.01,2013-01-26 11:25:00,
2013-01-26 05:27:00,3.9,1.4,30.21,West,269,0.0,0.0,89,0.00,,SKC,0.00,VWS V14.01,2013-01-26 11:27:00,
2013-01-26 05:30:00,0.6,-2.3,30.24,WNW,286,0.0,0.0,87,0.00,,SKC,0.00,VWS V14.01,2013-01-26 11:30:00,
2013-01-26 05:32:00,3.6,0.9,30.22,West,269,0.0,0.0,88,0.00,,SKC,0.00,VWS V14.01,2013-01-26 11:32:00,
2013-01-26 05:35:00,0.2,-2.5,30.24,WNW,286,0.0,0.0,88,0.00,,SKC,0.00,VWS V14.01,2013-01-26 11:35:00,
2013-01-26 05:37:00,3.2,0.4,30.22,West,272,0.0,0.0,88,0.00,,SKC,0.00,VWS V14.01,2013-01-26 11:37:00,
2013-01-26 05:40:00,0.3,-2.2,30.24,WNW,286,0.0,0.0,89,0.00,,SKC,0.00,VWS V14.01,2013-01-26 11:40:00,
2013-01-26 05:42:00,3.3,0.8,30.22,West,273,0.0,0.0,89,0.00,,SKC,0.00,VWS V14.01,2013-01-26 11:42:00,
2013-01-26 05:45:00,0.1,-2.7,30.25,WNW,285,0.0,0.0,88,0.00,,SKC,0.00,VWS V14.01,2013-01-26 11:45:00,
2013-01-26 05:47:00,3.1,0.6,30.22,West,273,0.0,0.0,89,0.00,,SKC,0.00,VWS V14.01,2013-01-26 11:47:00,
2013-01-26 05:50:00,-0.1,-2.8,30.25,WNW,286,0.0,0.0,88,0.00,,SKC,0.00,VWS V14.01,2013-01-26 11:50:00,
2013-01-26 05:52:00,3.0,0.5,30.22,WNW,286,0.0,0.0,89,0.00,,SKC,0.00,VWS V14.01,2013-01-26 11:52:00,
2013-01-26 05:55:00,-0.1,-2.5,30.25,WNW,286,0.0,0.0,89,0.00,,SKC,0.00,VWS V14.01,2013-01-26 11:55:00,
2013-01-26 05:57:00,3.1,0.6,30.22,WNW,286,0.0,0.0,89,0.00,,SKC,0.00,VWS V14.01,2013-01-26 11:57:00,
2013-01-26 06:00:00,-0.4,-3.1,30.25,WNW,286,0.0,0.0,88,0.00,,SKC,0.00,VWS V14.01,2013-01-26 12:00:00,
2013-01-26 06:03:00,3.0,0.5,30.22,WNW,286,0.0,0.0,89,0.00,,SKC,0.00,VWS V14.01,2013-01-26 12:03:00,
2013-01-26 06:05:00,-0.5,-3.2,30.25,WNW,286,0.0,0.0,88,0.00,,SKC,0.00,VWS V14.01,2013-01-26 12:05:00,
2013-01-26 06:08:00,2.9,0.4,30.22,WNW,286,0.0,0.0,89,0.00,,SKC,0.00,VWS V14.01,2013-01-26 12:08:00,
2013-01-26 06:10:00,-0.7,-3.2,30.25,WNW,286,0.0,0.0,89,0.00,,SKC,0.00,VWS V14.01,2013-01-26 12:10:00,
2013-01-26 06:13:00,2.5,-0.2,30.22,WNW,286,0.0,0.0,88,0.00,,SKC,0.00,VWS V14.01,2013-01-26 12:13:00,
2013-01-26 06:15:00,-0.9,-3.3,30.26,WNW,286,0.0,0.0,89,0.00,,SKC,0.00,VWS V14.01,2013-01-26 12:15:00,
2013-01-26 06:18:00,2.0,-0.7,30.23,WNW,286,0.0,0.0,88,0.00,,SKC,0.00,VWS V14.01,2013-01-26 12:18:00,
2013-01-26 06:20:00,-0.9,-3.3,30.26,WNW,286,0.0,0.0,89,0.00,,SKC,0.00,VWS V14.01,2013-01-26 12:20:00,
2013-01-26 06:23:00,1.7,-1.0,30.23,WNW,286,0.0,0.0,88,0.00,,SKC,0.00,VWS V14.01,2013-01-26 12:23:00,
2013-01-26 06:25:00,-1.2,-3.9,30.26,WNW,286,0.0,0.0,88,0.00,,SKC,0.00,VWS V14.01,2013-01-26 12:25:00,
2013-01-26 06:28:00,1.0,-2.0,30.23,WNW,286,0.0,0.0,87,0.00,,SKC,0.00,VWS V14.01,2013-01-26 12:28:00,
2013-01-26 06:30:00,-1.9,-4.8,30.26,WNW,286,0.0,0.0,87,0.00,,SKC,0.00,VWS V14.01,2013-01-26 12:30:00,
2013-01-26 06:33:00,0.6,-2.3,30.24,WNW,285,0.0,0.0,87,0.00,,SKC,0.00,VWS V14.01,2013-01-26 12:33:00,
2013-01-26 06:35:00,-2.4,-5.6,30.26,WNW,286,0.0,0.0,86,0.00,,SKC,0.00,VWS V14.01,2013-01-26 12:35:00,
2013-01-26 06:38:00,0.2,-2.5,30.24,WNW,285,0.0,0.0,88,0.00,,SKC,0.00,VWS V14.01,2013-01-26 12:38:00,
2013-01-26 06:40:00,-2.5,-5.4,30.26,WNW,286,0.0,0.0,87,0.00,,SKC,0.00,VWS V14.01,2013-01-26 12:40:00,
2013-01-26 06:43:00,0.3,-2.2,30.24,WNW,286,0.0,0.0,89,0.00,,SKC,0.00,VWS V14.01,2013-01-26 12:43:00,
2013-01-26 06:45:00,-2.8,-5.9,30.26,WNW,286,0.0,0.0,86,0.00,,SKC,0.00,VWS V14.01,2013-01-26 12:45:00,
2013-01-26 06:48:00,-0.1,-2.8,30.25,WNW,286,0.0,0.0,88,0.00,,SKC,0.00,VWS V14.01,2013-01-26 12:48:00,
2013-01-26 06:50:00,-2.9,-5.8,30.26,WNW,286,0.0,0.0,87,0.00,,SKC,0.00,VWS V14.01,2013-01-26 12:50:00,
2013-01-26 06:53:00,-0.2,-2.9,30.25,WNW,286,0.0,0.0,88,0.00,,SKC,0.00,VWS V14.01,2013-01-26 12:53:00,
2013-01-26 06:55:00,-3.0,-6.1,30.26,WNW,286,0.0,0.0,86,0.00,,SKC,0.00,VWS V14.01,2013-01-26 12:55:00,
2013-01-26 06:58:00,0.1,-2.4,30.25,WNW,286,0.0,0.0,89,0.00,,SKC,0.00,VWS V14.01,2013-01-26 12:58:00,
2013-01-26 07:00:00,-3.0,-6.1,30.27,WNW,286,0.0,0.0,86,0.00,,SKC,0.00,VWS V14.01,2013-01-26 13:00:00,
2013-01-26 07:03:00,-0.4,-3.1,30.25,WNW,286,0.0,0.0,88,0.00,,SKC,0.00,VWS V14.01,2013-01-26 13:03:00,
2013-01-26 07:05:00,-2.9,-5.8,30.27,WNW,285,0.0,0.0,87,0.00,,SKC,0.00,VWS V14.01,2013-01-26 13:05:00,
2013-01-26 07:08:00,-0.5,-3.0,30.25,WNW,286,0.0,0.0,89,0.00,,SKC,0.00,VWS V14.01,2013-01-26 13:08:00,
2013-01-26 07:10:00,-2.6,-5.5,30.27,WNW,286,0.0,0.0,87,0.00,,SKC,0.00,VWS V14.01,2013-01-26 13:10:00,
2013-01-26 07:13:00,-0.8,-3.3,30.25,WNW,286,0.0,0.0,89,0.00,,SKC,0.00,VWS V14.01,2013-01-26 13:13:00,
2013-01-26 07:15:00,-2.5,-5.4,30.28,WNW,286,0.0,0.0,87,0.00,,SKC,0.00,VWS V14.01,2013-01-26 13:15:00,
2013-01-26 07:18:00,-0.9,-3.3,30.26,WNW,286,0.0,0.0,89,0.00,,SKC,0.00,VWS V14.01,2013-01-26 13:18:00,
2013-01-26 07:20:00,-1.9,-4.6,30.28,WNW,286,0.0,0.0,88,0.00,,SKC,0.00,VWS V14.01,2013-01-26 13:20:00,
2013-01-26 07:23:00,-0.9,-3.3,30.26,WNW,286,0.0,0.0,89,0.00,,SKC,0.00,VWS V14.01,2013-01-26 13:23:00,
2013-01-26 07:25:00,-1.3,-3.8,30.28,WNW,286,0.0,0.0,89,0.00,,SKC,0.00,VWS V14.01,2013-01-26 13:25:00,
2013-01-26 07:28:00,-1.4,-4.1,30.26,WNW,286,0.0,0.0,88,0.00,,SKC,0.00,VWS V14.01,2013-01-26 13:28:00,
2013-01-26 07:30:00,-0.8,-3.3,30.29,WNW,286,0.0,0.0,89,0.00,,SKC,0.00,VWS V14.01,2013-01-26 13:30:00,
2013-01-26 07:33:00,-2.0,-4.9,30.26,WNW,286,0.0,0.0,87,0.00,,SKC,0.00,VWS V14.01,2013-01-26 13:33:00,
2013-01-26 07:35:00,-0.3,-2.5,30.29,WNW,285,0.0,0.0,90,0.00,,SKC,0.00,VWS V14.01,2013-01-26 13:35:00,
2013-01-26 07:38:00,-2.5,-5.6,30.26,WNW,286,0.0,0.0,86,0.00,,SKC,0.00,VWS V14.01,2013-01-26 13:38:00,
2013-01-26 07:40:00,0.7,-1.3,30.29,WNW,286,0.0,0.0,91,0.00,,SKC,0.00,VWS V14.01,2013-01-26 13:40:00,
2013-01-26 07:43:00,-2.6,-5.5,30.26,WNW,286,0.0,0.0,87,0.00,,SKC,0.00,VWS V14.01,2013-01-26 13:43:00,
2013-01-26 07:45:00,1.3,-0.7,30.29,WNW,285,0.0,0.0,91,0.00,,SKC,0.00,VWS V14.01,2013-01-26 13:45:00,
2013-01-26 07:48:00,-2.8,-5.9,30.26,WNW,286,0.0,0.0,86,0.00,,SKC,0.00,VWS V14.01,2013-01-26 13:48:00,
2013-01-26 07:50:00,1.8,-0.4,30.29,WNW,286,0.0,0.0,90,0.00,,SKC,0.00,VWS V14.01,2013-01-26 13:50:00,
2013-01-26 07:53:00,-2.9,-5.8,30.26,WNW,286,0.0,0.0,87,0.00,,SKC,0.00,VWS V14.01,2013-01-26 13:53:00,
2013-01-26 07:55:00,2.3,0.0,30.29,WNW,286,0.0,0.0,90,0.00,,SKC,0.00,VWS V14.01,2013-01-26 13:55:00,
2013-01-26 07:58:00,-3.0,-6.1,30.26,WNW,286,0.0,0.0,86,0.00,,SKC,0.00,VWS V14.01,2013-01-26 13:58:00,
2013-01-26 08:00:00,3.2,1.2,30.30,WNW,286,0.0,0.0,91,0.00,,SKC,0.00,VWS V14.01,2013-01-26 14:00:00,
2013-01-26 08:03:00,-3.0,-6.1,30.27,WNW,285,0.0,0.0,86,0.00,,SKC,0.00,VWS V14.01,2013-01-26 14:03:00,
2013-01-26 08:05:00,4.3,2.3,30.30,WNW,286,0.0,0.0,91,0.00,,SKC,0.00,VWS V14.01,2013-01-26 14:05:00,
2013-01-26 08:08:00,-2.9,-5.8,30.27,WNW,286,0.0,0.0,87,0.00,,SKC,0.00,VWS V14.01,2013-01-26 14:08:00,
2013-01-26 08:10:00,5.0,3.0,30.30,WNW,286,0.0,0.0,91,0.00,,SKC,0.00,VWS V14.01,2013-01-26 14:10:00,
2013-01-26 08:13:00,-2.6,-5.5,30.27,WNW,286,0.0,0.0,87,0.00,,SKC,0.00,VWS V14.01,2013-01-26 14:13:00,
2013-01-26 08:15:00,5.7,3.4,30.30,West,280,0.0,0.0,90,0.00,,SKC,0.00,VWS V14.01,2013-01-26 14:15:00,
2013-01-26 08:18:00,-2.4,-5.1,30.28,WNW,285,0.0,0.0,88,0.00,,SKC,0.00,VWS V14.01,2013-01-26 14:18:00,
2013-01-26 08:20:00,6.5,4.2,30.30,NW,308,0.0,0.0,90,0.00,,SKC,0.00,VWS V14.01,2013-01-26 14:20:00,
2013-01-26 08:23:00,-1.8,-4.5,30.28,WNW,286,0.0,0.0,88,0.00,,SKC,0.00,VWS V14.01,2013-01-26 14:23:00,
2013-01-26 08:25:00,6.9,4.3,30.30,West,275,0.0,0.0,89,0.00,,SKC,0.00,VWS V14.01,2013-01-26 14:25:00,
2013-01-26 08:28:00,-1.2,-3.7,30.28,WNW,286,0.0,0.0,89,0.00,,SKC,0.00,VWS V14.01,2013-01-26 14:28:00,
2013-01-26 08:30:00,7.4,4.8,30.31,West,275,0.0,0.0,89,0.00,,SKC,0.00,VWS V14.01,2013-01-26 14:30:00,
2013-01-26 08:33:00,-0.8,-3.3,30.29,WNW,286,0.0,0.0,89,0.00,,SKC,0.00,VWS V14.01,2013-01-26 14:33:00,
2013-01-26 08:35:00,8.1,5.5,30.31,West,276,0.0,0.0,89,0.00,,SKC,0.00,VWS V14.01,2013-01-26 14:35:00,
2013-01-26 08:38:00,-0.1,-2.3,30.29,WNW,286,0.0,0.0,90,0.00,,SKC,0.00,VWS V14.01,2013-01-26 14:38:00,
2013-01-26 08:40:00,8.5,5.7,30.31,West,275,0.0,0.0,88,0.00,,SKC,0.00,VWS V14.01,2013-01-26 14:40:00,
2013-01-26 08:43:00,0.8,-1.2,30.29,WNW,286,0.0,0.0,91,0.00,,SKC,0.00,VWS V14.01,2013-01-26 14:43:00,
2013-01-26 08:45:00,9.0,5.9,30.31,NW,315,0.0,0.0,87,0.00,,SKC,0.00,VWS V14.01,2013-01-26 14:45:00,
2013-01-26 08:48:00,1.4,-0.6,30.29,WNW,286,0.0,0.0,91,0.00,,SKC,0.00,VWS V14.01,2013-01-26 14:48:00,
2013-01-26 08:50:00,9.5,6.4,30.31,NW,315,0.0,0.0,87,0.00,,SKC,0.00,VWS V14.01,2013-01-26 14:50:00,
2013-01-26 08:53:00,1.9,-0.3,30.29,WNW,286,0.0,0.0,90,0.00,,SKC,0.00,VWS V14.01,2013-01-26 14:53:00,
2013-01-26 08:55:00,9.9,6.8,30.31,NW,315,0.0,0.0,87,0.00,,SKC,0.00,VWS V14.01,2013-01-26 14:55:00,
2013-01-26 08:58:00,2.4,0.1,30.29,WNW,286,0.0,0.0,90,0.00,,SKC,0.00,VWS V14.01,2013-01-26 14:58:00,
2013-01-26 09:00:00,10.5,7.4,30.31,NW,311,0.0,0.0,87,0.00,,SKC,0.00,VWS V14.01,2013-01-26 15:00:00,
2013-01-26 09:03:00,3.5,1.5,30.30,WNW,286,0.0,0.0,91,0.00,,SKC,0.00,VWS V14.01,2013-01-26 15:03:00,
2013-01-26 09:05:00,11.1,7.7,30.31,NW,311,0.0,0.0,86,0.00,,SKC,0.00,VWS V14.01,2013-01-26 15:05:00,
2013-01-26 09:08:00,4.4,2.4,30.30,WNW,286,0.0,0.0,91,0.00,,SKC,0.00,VWS V14.01,2013-01-26 15:08:00,
2013-01-26 09:10:00,11.8,8.4,30.31,NNW,348,0.0,0.0,86,0.00,,SKC,0.00,VWS V14.01,2013-01-26 15:10:00,
2013-01-26 09:13:00,5.2,3.2,30.30,WNW,286,0.0,0.0,91,0.00,,SKC,0.00,VWS V14.01,2013-01-26 15:13:00,
2013-01-26 09:15:00,12.5,8.9,30.32,NW,326,0.0,2.0,85,0.00,,SKC,0.00,VWS V14.01,2013-01-26 15:15:00,
2013-01-26 09:18:00,5.9,3.6,30.30,North,355,0.0,0.0,90,0.00,,SKC,0.00,VWS V14.01,2013-01-26 15:18:00,
2013-01-26 09:20:00,13.0,9.1,30.32,NNW,338,1.0,2.0,84,0.00,,SKC,0.00,VWS V14.01,2013-01-26 15:20:00,
2013-01-26 09:23:00,6.5,4.2,30.30,NW,308,0.0,0.0,90,0.00,,SKC,0.00,VWS V14.01,2013-01-26 15:23:00,
2013-01-26 09:25:00,13.5,9.6,30.32,North,349,1.0,1.0,84,0.00,,SKC,0.00,VWS V14.01,2013-01-26 15:25:00,
2013-01-26 09:28:00,7.0,4.4,30.30,West,275,0.0,0.0,89,0.00,,SKC,0.00,VWS V14.01,2013-01-26 15:28:00,
2013-01-26 09:30:00,14.2,10.0,30.33,ENE,71,0.0,3.0,83,0.00,,SKC,0.00,VWS V14.01,2013-01-26 15:30:00,
2013-01-26 09:33:00,7.6,5.0,30.31,West,274,0.0,0.0,89,0.00,,SKC,0.00,VWS V14.01,2013-01-26 15:33:00,
2013-01-26 09:35:00,14.5,9.7,30.33,NW,304,0.0,2.0,81,0.00,,SKC,0.00,VWS V14.01,2013-01-26 15:35:00,
2013-01-26 09:38:00,8.2,5.4,30.31,West,275,0.0,0.0,88,0.00,,SKC,0.00,VWS V14.01,2013-01-26 15:38:00,
2013-01-26 09:40:00,14.5,9.7,30.33,East,86,0.0,0.0,81,0.00,,SKC,0.00,VWS V14.01,2013-01-26 15:40:00,
2013-01-26 09:43:00,8.7,5.9,30.31,West,261,0.0,0.0,88,0.00,,SKC,0.00,VWS V14.01,2013-01-26 15:43:00,
2013-01-26 09:45:00,14.8,10.0,30.32,NE,34,0.0,0.0,81,0.00,,SKC,0.00,VWS V14.01,2013-01-26 15:45:00,
2013-01-26 09:48:00,9.2,6.1,30.31,NW,315,0.0,0.0,87,0.00,,SKC,0.00,VWS V14.01,2013-01-26 15:48:00,
2013-01-26 09:50:00,15.5,10.7,30.32,East,81,0.0,0.0,81,0.00,,SKC,0.00,VWS V14.01,2013-01-26 15:50:00,
2013-01-26 09:53:00,9.6,6.5,30.31,NW,315,0.0,0.0,87,0.00,,SKC,0.00,VWS V14.01,2013-01-26 15:53:00,
2013-01-26 09:55:00,15.8,10.4,30.32,ESE,115,1.0,3.0,79,0.00,,SKC,0.00,VWS V14.01,2013-01-26 15:55:00,
2013-01-26 09:58:00,10.1,7.0,30.31,NW,315,0.0,0.0,87,0.00,,SKC,0.00,VWS V14.01,2013-01-26 15:58:00,
2013-01-26 10:00:00,16.0,10.9,30.32,NE,42,2.0,4.0,80,0.00,,SKC,0.00,VWS V14.01,2013-01-26 16:00:00,
2013-01-26 10:03:00,10.6,7.5,30.31,NW,311,0.0,0.0,87,0.00,,SKC,0.00,VWS V14.01,2013-01-26 16:03:00,
2013-01-26 10:05:00,16.1,10.8,30.32,ESE,121,0.0,4.0,79,0.00,,SKC,0.00,VWS V14.01,2013-01-26 16:05:00,
2013-01-26 10:08:00,11.2,7.8,30.31,East,96,0.0,0.0,86,0.00,,SKC,0.00,VWS V14.01,2013-01-26 16:08:00,
2013-01-26 10:10:00,16.6,11.2,30.32,NNE,22,0.0,0.0,79,0.00,,SKC,0.00,VWS V14.01,2013-01-26 16:10:00,
2013-01-26 10:13:00,12.0,8.6,30.31,ENE,65,0.0,0.0,86,0.00,,SKC,0.00,VWS V14.01,2013-01-26 16:13:00,
2013-01-26 10:15:00,16.9,11.2,30.32,NNE,27,2.0,3.0,78,0.00,,SKC,0.00,VWS V14.01,2013-01-26 16:15:00,
2013-01-26 10:18:00,12.6,8.7,30.32,NNE,30,0.0,2.0,84,0.00,,SKC,0.00,VWS V14.01,2013-01-26 16:18:00,
2013-01-26 10:20:00,17.0,11.1,30.32,East,93,0.0,3.0,77,0.00,,SKC,0.00,VWS V14.01,2013-01-26 16:20:00,
2013-01-26 10:24:00,13.2,9.3,30.32,NNW,336,0.0,1.0,84,0.00,,SKC,0.00,VWS V14.01,2013-01-26 16:24:00,
2013-01-26 10:25:00,17.6,11.9,30.32,SE,137,2.0,3.0,78,0.00,,SKC,0.00,VWS V14.01,2013-01-26 16:25:00,
2013-01-26 10:29:00,13.7,9.8,30.32,ESE,102,0.0,1.0,84,0.00,,SKC,0.00,VWS V14.01,2013-01-26 16:29:00,
2013-01-26 10:30:00,18.2,12.2,30.31,ESE,111,0.0,3.0,77,0.00,,SKC,0.00,VWS V14.01,2013-01-26 16:30:00,
2013-01-26 10:34:00,14.3,9.8,30.33,East,82,1.0,2.0,82,0.00,,SKC,0.00,VWS V14.01,2013-01-26 16:34:00,
2013-01-26 10:35:00,18.3,11.7,30.31,East,83,0.0,3.0,75,0.00,,SKC,0.00,VWS V14.01,2013-01-26 16:35:00,
2013-01-26 10:39:00,14.6,9.8,30.33,East,80,0.0,0.0,81,0.00,,SKC,0.00,VWS V14.01,2013-01-26 16:39:00,
2013-01-26 10:40:00,18.4,11.8,30.31,ESE,103,2.0,3.0,75,0.00,,SKC,0.00,VWS V14.01,2013-01-26 16:40:00,
2013-01-26 10:44:00,14.5,9.7,30.33,ENE,65,0.0,0.0,81,0.00,,SKC,0.00,VWS V14.01,2013-01-26 16:44:00,
2013-01-26 10:45:00,18.3,11.4,30.30,SSE,154,2.0,3.0,74,0.00,,SKC,0.00,VWS V14.01,2013-01-26 16:45:00,
2013-01-26 10:49:00,15.0,10.2,30.32,NE,35,0.0,0.0,81,0.00,,SKC,0.00,VWS V14.01,2013-01-26 16:49:00,
2013-01-26 10:50:00,18.2,11.3,30.30,ENE,61,0.0,3.0,74,0.00,,SKC,0.00,VWS V14.01,2013-01-26 16:50:00,
2013-01-26 10:54:00,15.7,10.9,30.32,ENE,74,0.0,0.0,81,0.00,,SKC,0.00,VWS V14.01,2013-01-26 16:54:00,
2013-01-26 10:55:00,18.5,11.6,30.30,ESE,107,0.0,2.0,74,0.00,,SKC,0.00,VWS V14.01,2013-01-26 16:55:00,
2013-01-26 10:59:00,15.9,10.6,30.32,East,98,0.0,1.0,79,0.00,,SKC,0.00,VWS V14.01,2013-01-26 16:59:00,
2013-01-26 11:00:00,18.8,11.6,30.30,SE,130,1.0,3.0,73,0.00,,SKC,0.00,VWS V14.01,2013-01-26 17:00:00,
2013-01-26 11:04:00,16.0,10.6,30.32,NNE,30,2.0,4.0,79,0.00,,SKC,0.00,VWS V14.01,2013-01-26 17:04:00,
2013-01-26 11:05:00,18.9,11.4,30.30,West,269,2.0,4.0,72,0.00,,SKC,0.00,VWS V14.01,2013-01-26 17:05:00,
2013-01-26 11:09:00,16.3,10.9,30.32,East,90,0.0,0.0,79,0.00,,SKC,0.00,VWS V14.01,2013-01-26 17:09:00,
2013-01-26 11:10:00,19.0,12.1,30.30,NE,55,1.0,2.0,74,0.00,,SKC,0.00,VWS V14.01,2013-01-26 17:10:00,
2013-01-26 11:14:00,16.8,11.4,30.32,East,85,1.0,1.0,79,0.00,,SKC,0.00,VWS V14.01,2013-01-26 17:14:00,
2013-01-26 11:15:00,19.5,12.6,30.29,East,101,0.0,1.0,74,0.00,,SKC,0.00,VWS V14.01,2013-01-26 17:15:00,
2013-01-26 11:19:00,16.9,11.2,30.32,North,350,0.0,2.0,78,0.00,,SKC,0.00,VWS V14.01,2013-01-26 17:19:00,
2013-01-26 11:20:00,19.7,12.1,30.29,SSE,161,2.0,3.0,72,0.00,,SKC,0.00,VWS V14.01,2013-01-26 17:20:00,
2013-01-26 11:24:00,17.1,11.4,30.32,ESE,120,0.0,0.0,78,0.00,,SKC,0.00,VWS V14.01,2013-01-26 17:24:00,
2013-01-26 11:25:00,19.8,11.9,30.29,NNE,27,1.0,2.0,71,0.00,,SKC,0.00,VWS V14.01,2013-01-26 17:25:00,
2013-01-26 11:29:00,17.7,11.7,30.32,SSW,207,1.0,3.0,77,0.00,,SKC,0.00,VWS V14.01,2013-01-26 17:29:00,
2013-01-26 11:30:00,19.6,11.7,30.30,ENE,67,0.0,2.0,71,0.00,,SKC,0.00,VWS V14.01,2013-01-26 17:30:00,
2013-01-26 11:34:00,18.3,12.3,30.31,ESE,113,2.0,3.0,77,0.00,,SKC,0.00,VWS V14.01,2013-01-26 17:34:00,
2013-01-26 11:35:00,20.2,12.3,30.30,ESE,123,0.0,3.0,71,0.00,,SKC,0.00,VWS V14.01,2013-01-26 17:35:00,
2013-01-26 11:39:00,18.3,11.7,30.31,ENE,58,0.0,0.0,75,0.00,,SKC,0.00,VWS V14.01,2013-01-26 17:39:00,
2013-01-26 11:40:00,20.7,12.1,30.30,SE,138,2.0,4.0,69,0.00,,SKC,0.00,VWS V14.01,2013-01-26 17:40:00,
2013-01-26 11:44:00,18.4,11.8,30.31,ESE,108,2.0,2.0,75,0.00,,SKC,0.00,VWS V14.01,2013-01-26 17:44:00,
2013-01-26 11:45:00,20.9,12.4,30.30,East,85,1.0,2.0,69,0.00,,SKC,0.00,VWS V14.01,2013-01-26 17:45:00,
2013-01-26 11:49:00,18.3,11.4,30.30,SSE,163,2.0,2.0,74,0.00,,SKC,0.00,VWS V14.01,2013-01-26 17:49:00,
2013-01-26 11:50:00,21.0,12.4,30.30,SE,128,3.0,4.0,69,0.00,,SKC,0.00,VWS V14.01,2013-01-26 17:50:00,
2013-01-26 11:54:00,18.2,11.3,30.30,South,180,2.0,2.0,74,0.00,,SKC,0.00,VWS V14.01,2013-01-26 17:54:00,
2013-01-26 11:55:00,21.3,12.4,30.30,SW,217,0.0,3.0,68,0.00,,SKC,0.00,VWS V14.01,2013-01-26 17:55:00,
2013-01-26 11:59:00,18.6,11.7,30.30,East,98,2.0,2.0,74,0.00,,SKC,0.00,VWS V14.01,2013-01-26 17:59:00,
2013-01-26 12:00:00,21.5,12.3,30.30,WNW,292,1.0,4.0,67,0.00,,SKC,0.00,VWS V14.01,2013-01-26 18:00:00,
2013-01-26 12:04:00,18.8,11.3,30.30,ESE,117,3.0,3.0,72,0.00,,SKC,0.00,VWS V14.01,2013-01-26 18:04:00,
2013-01-26 12:05:00,21.3,13.1,30.30,WNW,282,2.0,4.0,70,0.00,,SKC,0.00,VWS V14.01,2013-01-26 18:05:00,
2013-01-26 12:09:00,19.0,11.8,30.30,West,260,0.0,2.0,73,0.00,,SKC,0.00,VWS V14.01,2013-01-26 18:09:00,
2013-01-26 12:10:00,21.3,12.7,30.30,SW,222,1.0,3.0,69,0.00,,SKC,0.00,VWS V14.01,2013-01-26 18:10:00,
2013-01-26 12:14:00,19.0,11.8,30.30,NE,55,0.0,1.0,73,0.00,,SKC,0.00,VWS V14.01,2013-01-26 18:14:00,
2013-01-26 12:15:00,21.6,12.4,30.30,ESE,103,0.0,3.0,67,0.00,,SKC,0.00,VWS V14.01,2013-01-26 18:15:00,
2013-01-26 12:19:00,19.8,12.9,30.29,East,80,3.0,3.0,74,0.00,,SKC,0.00,VWS V14.01,2013-01-26 18:19:00,
2013-01-26 12:20:00,21.5,12.6,30.30,West,276,1.0,3.0,68,0.00,,SKC,0.00,VWS V14.01,2013-01-26 18:20:00,
2013-01-26 12:24:00,19.8,12.2,30.29,SE,133,0.0,2.0,72,0.00,,SKC,0.00,VWS V14.01,2013-01-26 18:24:00,
2013-01-26 12:25:00,21.5,12.6,30.30,West,265,1.0,5.0,68,0.00,,SKC,0.00,VWS V14.01,2013-01-26 18:25:00,
2013-01-26 12:29:00,19.7,11.8,30.29,East,90,1.0,2.0,71,0.00,,SKC,0.00,VWS V14.01,2013-01-26 18:29:00,
2013-01-26 12:30:00,21.3,12.4,30.30,SSE,161,2.0,3.0,68,0.00,,SKC,0.00,VWS V14.01,2013-01-26 18:30:00,
2013-01-26 12:34:00,19.8,12.2,30.30,SSE,148,1.0,1.0,72,0.00,,SKC,0.00,VWS V14.01,2013-01-26 18:34:00,
2013-01-26 12:35:00,21.6,13.0,30.30,WSW,256,0.0,3.0,69,0.00,,SKC,0.00,VWS V14.01,2013-01-26 18:35:00,
2013-01-26 12:39:00,20.4,11.5,30.30,ESE,119,2.0,2.0,68,0.00,,SKC,0.00,VWS V14.01,2013-01-26 18:39:00,
2013-01-26 12:40:00,21.8,13.2,30.30,West,273,0.0,4.0,69,0.00,,SKC,0.00,VWS V14.01,2013-01-26 18:40:00,
2013-01-26 12:44:00,20.8,11.9,30.30,East,96,1.0,2.0,68,0.00,,SKC,0.00,VWS V14.01,2013-01-26 18:44:00,
2013-01-26 12:45:00,21.9,12.3,30.29,WSW,258,2.0,4.0,66,0.00,,SKC,0.00,VWS V14.01,2013-01-26 18:45:00,
2013-01-26 12:49:00,20.9,12.4,30.30,East,84,0.0,1.0,69,0.00,,SKC,0.00,VWS V14.01,2013-01-26 18:49:00,
2013-01-26 12:50:00,21.9,12.3,30.29,WSW,257,1.0,3.0,66,0.00,,SKC,0.00,VWS V14.01,2013-01-26 18:50:00,
2013-01-26 12:54:00,21.0,12.1,30.30,WSW,253,2.0,3.0,68,0.00,,SKC,0.00,VWS V14.01,2013-01-26 18:54:00,
2013-01-26 12:55:00,21.7,12.1,30.29,SE,134,1.0,5.0,66,0.00,,SKC,0.00,VWS V14.01,2013-01-26 18:55:00,
2013-01-26 12:59:00,21.6,12.7,30.30,WSW,250,3.0,3.0,68,0.00,,SKC,0.00,VWS V14.01,2013-01-26 18:59:00,
2013-01-26 13:00:00,21.6,12.0,30.29,SE,133,1.0,2.0,66,0.00,,SKC,0.00,VWS V14.01,2013-01-26 19:00:00,
2013-01-26 13:04:00,21.4,12.8,30.30,West,260,2.0,4.0,69,0.00,,SKC,0.00,VWS V14.01,2013-01-26 19:04:00,
2013-01-26 13:05:00,21.4,11.8,30.29,SSE,148,1.0,2.0,66,0.00,,SKC,0.00,VWS V14.01,2013-01-26 19:05:00,
2013-01-26 13:09:00,21.2,12.3,30.30,SW,230,0.0,3.0,68,0.00,,SKC,0.00,VWS V14.01,2013-01-26 19:09:00,
2013-01-26 13:10:00,21.3,12.1,30.29,South,190,1.0,5.0,67,0.00,,SKC,0.00,VWS V14.01,2013-01-26 19:10:00,
2013-01-26 13:14:00,21.4,12.8,30.30,SW,214,1.0,2.0,69,0.00,,SKC,0.00,VWS V14.01,2013-01-26 19:14:00,
2013-01-26 13:15:00,21.2,12.6,30.28,ESE,119,0.0,2.0,69,0.00,,SKC,0.00,VWS V14.01,2013-01-26 19:15:00,
2013-01-26 13:19:00,21.6,13.0,30.30,WNW,284,3.0,3.0,69,0.00,,SKC,0.00,VWS V14.01,2013-01-26 19:19:00,
2013-01-26 13:20:00,21.3,12.7,30.28,WNW,283,0.0,2.0,69,0.00,,SKC,0.00,VWS V14.01,2013-01-26 19:20:00,
2013-01-26 13:24:00,21.6,13.0,30.30,West,259,2.0,2.0,69,0.00,,SKC,0.00,VWS V14.01,2013-01-26 19:24:00,
2013-01-26 13:25:00,21.2,13.0,30.28,WNW,292,3.0,3.0,70,0.00,,SKC,0.00,VWS V14.01,2013-01-26 19:25:00,
2013-01-26 13:29:00,21.4,12.8,30.30,West,275,1.0,3.0,69,0.00,,SKC,0.00,VWS V14.01,2013-01-26 19:29:00,
2013-01-26 13:30:00,21.1,12.9,30.29,WSW,250,2.0,3.0,70,0.00,,SKC,0.00,VWS V14.01,2013-01-26 19:30:00,
2013-01-26 13:34:00,21.4,12.5,30.30,SW,233,0.0,3.0,68,0.00,,SKC,0.00,VWS V14.01,2013-01-26 19:34:00,
2013-01-26 13:35:00,21.1,12.5,30.29,West,265,1.0,4.0,69,0.00,,SKC,0.00,VWS V14.01,2013-01-26 19:35:00,
2013-01-26 13:39:00,21.7,12.8,30.30,WSW,248,2.0,3.0,68,0.00,,SKC,0.00,VWS V14.01,2013-01-26 19:39:00,
2013-01-26 13:40:00,21.4,13.5,30.29,West,260,1.0,3.0,71,0.00,,SKC,0.00,VWS V14.01,2013-01-26 19:40:00,
2013-01-26 13:44:00,22.0,13.4,30.30,WSW,250,4.0,4.0,69,0.00,,SKC,0.00,VWS V14.01,2013-01-26 19:44:00,
2013-01-26 13:45:00,21.5,13.2,30.29,WSW,246,0.0,3.0,70,0.00,,SKC,0.00,VWS V14.01,2013-01-26 19:45:00,
2013-01-26 13:49:00,21.8,12.5,30.29,SW,233,2.0,3.0,67,0.00,,SKC,0.00,VWS V14.01,2013-01-26 19:49:00,
2013-01-26 13:50:00,21.7,14.1,30.29,SW,217,1.0,3.0,72,0.00,,SKC,0.00,VWS V14.01,2013-01-26 19:50:00,
2013-01-26 13:54:00,21.8,11.9,30.29,SW,236,0.0,5.0,65,0.00,,SKC,0.00,VWS V14.01,2013-01-26 19:54:00,
2013-01-26 13:55:00,21.9,13.6,30.29,WSW,245,0.0,1.0,70,0.00,,SKC,0.00,VWS V14.01,2013-01-26 19:55:00,
2013-01-26 13:59:00,21.6,12.0,30.29,ESE,119,1.0,1.0,66,0.00,,SKC,0.00,VWS V14.01,2013-01-26 19:59:00,
2013-01-26 14:00:00,21.7,13.4,30.29,WSW,250,0.0,1.0,70,0.00,,SKC,0.00,VWS V14.01,2013-01-26 20:00:00,
2013-01-26 14:04:00,21.5,11.6,30.29,SSE,167,2.0,2.0,65,0.00,,SKC,0.00,VWS V14.01,2013-01-26 20:04:00,
2013-01-26 14:05:00,21.7,13.1,30.29,South,190,0.0,2.0,69,0.00,,SKC,0.00,VWS V14.01,2013-01-26 20:05:00,
2013-01-26 14:09:00,21.3,11.7,30.29,South,182,1.0,2.0,66,0.00,,SKC,0.00,VWS V14.01,2013-01-26 20:09:00,
2013-01-26 14:10:00,21.6,13.0,30.29,West,271,2.0,4.0,69,0.00,,SKC,0.00,VWS V14.01,2013-01-26 20:10:00,
2013-01-26 14:14:00,21.3,12.4,30.29,ESE,119,1.0,2.0,68,0.00,,SKC,0.00,VWS V14.01,2013-01-26 20:14:00,
2013-01-26 14:15:00,21.5,13.2,30.29,WSW,250,2.0,3.0,70,0.00,,SKC,0.00,VWS V14.01,2013-01-26 20:15:00,
2013-01-26 14:19:00,21.3,12.7,30.28,WSW,245,0.0,1.0,69,0.00,,SKC,0.00,VWS V14.01,2013-01-26 20:19:00,
2013-01-26 14:20:00,21.4,13.1,30.29,WSW,249,3.0,3.0,70,0.00,,SKC,0.00,VWS V14.01,2013-01-26 20:20:00,
2013-01-26 14:24:00,21.3,13.1,30.28,WNW,284,1.0,1.0,70,0.00,,SKC,0.00,VWS V14.01,2013-01-26 20:24:00,
2013-01-26 14:25:00,21.1,12.9,30.29,WSW,256,1.0,3.0,70,0.00,,SKC,0.00,VWS V14.01,2013-01-26 20:25:00,
2013-01-26 14:29:00,21.1,12.9,30.28,West,263,1.0,3.0,70,0.00,,SKC,0.00,VWS V14.01,2013-01-26 20:29:00,
2013-01-26 14:30:00,21.1,12.9,30.29,WSW,244,1.0,2.0,70,0.00,,SKC,0.00,VWS V14.01,2013-01-26 20:30:00,
2013-01-26 14:34:00,21.1,12.9,30.29,WSW,252,1.0,2.0,70,0.00,,SKC,0.00,VWS V14.01,2013-01-26 20:34:00,
2013-01-26 14:35:00,20.9,12.7,30.29,WSW,253,0.0,1.0,70,0.00,,SKC,0.00,VWS V14.01,2013-01-26 20:35:00,
2013-01-26 14:39:00,21.2,13.0,30.29,WSW,241,0.0,3.0,70,0.00,,SKC,0.00,VWS V14.01,2013-01-26 20:39:00,
2013-01-26 14:40:00,20.8,12.2,30.29,WSW,252,1.0,2.0,69,0.00,,SKC,0.00,VWS V14.01,2013-01-26 20:40:00,
2013-01-26 14:44:00,21.5,13.6,30.29,West,272,2.0,3.0,71,0.00,,SKC,0.00,VWS V14.01,2013-01-26 20:44:00,
2013-01-26 14:45:00,20.7,12.5,30.28,WSW,246,0.0,4.0,70,0.00,,SKC,0.00,VWS V14.01,2013-01-26 20:45:00,
2013-01-26 14:49:00,21.5,13.2,30.29,West,277,0.0,3.0,70,0.00,,SKC,0.00,VWS V14.01,2013-01-26 20:49:00,
2013-01-26 14:50:00,20.8,12.6,30.28,SSE,147,0.0,2.0,70,0.00,,SKC,0.00,VWS V14.01,2013-01-26 20:50:00,
2013-01-26 14:54:00,21.8,13.9,30.29,WSW,245,0.0,1.0,71,0.00,,SKC,0.00,VWS V14.01,2013-01-26 20:54:00,
2013-01-26 14:55:00,20.9,12.7,30.28,SSW,205,2.0,2.0,70,0.00,,SKC,0.00,VWS V14.01,2013-01-26 20:55:00,
2013-01-26 14:59:00,21.9,13.3,30.29,WNW,288,0.0,1.0,69,0.00,,SKC,0.00,VWS V14.01,2013-01-26 20:59:00,
2013-01-26 15:00:00,20.7,12.1,30.29,ESE,113,2.0,3.0,69,0.00,,SKC,0.00,VWS V14.01,2013-01-26 21:00:00,
2013-01-26 15:04:00,21.7,13.4,30.29,SW,215,1.0,1.0,70,0.00,,SKC,0.00,VWS V14.01,2013-01-26 21:04:00,
2013-01-26 15:05:00,20.4,11.9,30.29,South,171,1.0,2.0,69,0.00,,SKC,0.00,VWS V14.01,2013-01-26 21:05:00,
2013-01-26 15:09:00,21.8,13.5,30.29,WSW,242,1.0,1.0,70,0.00,,SKC,0.00,VWS V14.01,2013-01-26 21:09:00,
2013-01-26 15:10:00,20.2,12.0,30.29,SE,132,1.0,3.0,70,0.00,,SKC,0.00,VWS V14.01,2013-01-26 21:10:00,
2013-01-26 15:14:00,21.5,13.2,30.29,WSW,253,1.0,3.0,70,0.00,,SKC,0.00,VWS V14.01,2013-01-26 21:14:00,
2013-01-26 15:15:00,20.0,11.8,30.29,SSW,207,1.0,3.0,70,0.00,,SKC,0.00,VWS V14.01,2013-01-26 21:15:00,
2013-01-26 15:19:00,21.5,13.2,30.29,West,280,2.0,2.0,70,0.00,,SKC,0.00,VWS V14.01,2013-01-26 21:19:00,
2013-01-26 15:20:00,19.8,11.9,30.29,SSE,155,0.0,2.0,71,0.00,,SKC,0.00,VWS V14.01,2013-01-26 21:20:00,
2013-01-26 15:24:00,21.2,12.6,30.29,WNW,287,2.0,3.0,69,0.00,,SKC,0.00,VWS V14.01,2013-01-26 21:24:00,
2013-01-26 15:25:00,19.7,11.5,30.29,ESE,107,2.0,3.0,70,0.00,,SKC,0.00,VWS V14.01,2013-01-26 21:25:00,
2013-01-26 15:29:00,21.1,12.9,30.29,WSW,243,0.0,2.0,70,0.00,,SKC,0.00,VWS V14.01,2013-01-26 21:29:00,
2013-01-26 15:30:00,19.6,11.4,30.28,ESE,123,2.0,3.0,70,0.00,,SKC,0.00,VWS V14.01,2013-01-26 21:30:00,
2013-01-26 15:34:00,21.0,12.8,30.29,WSW,253,1.0,1.0,70,0.00,,SKC,0.00,VWS V14.01,2013-01-26 21:34:00,
2013-01-26 15:35:00,19.4,11.2,30.28,SE,135,1.0,4.0,70,0.00,,SKC,0.00,VWS V14.01,2013-01-26 21:35:00,
2013-01-26 15:39:00,20.9,12.7,30.29,WSW,245,1.0,2.0,70,0.00,,SKC,0.00,VWS V14.01,2013-01-26 21:39:00,
2013-01-26 15:40:00,19.2,11.0,30.28,SE,130,1.0,2.0,70,0.00,,SKC,0.00,VWS V14.01,2013-01-26 21:40:00,
2013-01-26 15:44:00,20.8,12.2,30.29,WSW,246,1.0,2.0,69,0.00,,SKC,0.00,VWS V14.01,2013-01-26 21:44:00,
2013-01-26 15:45:00,19.1,10.9,30.27,SE,134,1.0,2.0,70,0.00,,SKC,0.00,VWS V14.01,2013-01-26 21:45:00,
2013-01-26 15:49:00,20.8,12.6,30.28,SSE,159,1.0,1.0,70,0.00,,SKC,0.00,VWS V14.01,2013-01-26 21:49:00,
2013-01-26 15:50:00,19.0,10.8,30.27,ESE,122,1.0,3.0,70,0.00,,SKC,0.00,VWS V14.01,2013-01-26 21:50:00,
2013-01-26 15:54:00,20.8,12.6,30.28,South,191,1.0,2.0,70,0.00,,SKC,0.00,VWS V14.01,2013-01-26 21:54:00,
2013-01-26 15:55:00,18.9,11.1,30.27,SSE,152,0.0,2.0,71,0.00,,SKC,0.00,VWS V14.01,2013-01-26 21:55:00,
2013-01-26 15:59:00,20.8,12.6,30.28,SSW,202,2.0,3.0,70,0.00,,SKC,0.00,VWS V14.01,2013-01-26 21:59:00,
2013-01-26 16:00:00,18.8,11.0,30.28,SSE,159,0.0,3.0,71,0.00,,SKC,0.00,VWS V14.01,2013-01-26 22:00:00,
2013-01-26 16:05:00,20.5,12.0,30.29,SSE,152,2.0,2.0,69,0.00,,SKC,0.00,VWS V14.01,2013-01-26 22:05:00,
2013-01-26 16:10:00,20.3,12.1,30.29,SE,130,2.0,2.0,70,0.00,,SKC,0.00,VWS V14.01,2013-01-26 22:10:00,
2013-01-26 16:15:00,20.1,11.9,30.29,SE,142,1.0,3.0,70,0.00,,SKC,0.00,VWS V14.01,2013-01-26 22:15:00,
2013-01-26 16:20:00,19.9,11.7,30.29,SE,135,0.0,1.0,70,0.00,,SKC,0.00,VWS V14.01,2013-01-26 22:20:00,
2013-01-26 16:25:00,19.8,11.6,30.29,ESE,113,1.0,2.0,70,0.00,,SKC,0.00,VWS V14.01,2013-01-26 22:25:00,
2013-01-26 16:30:00,19.6,11.4,30.29,SSE,149,1.0,3.0,70,0.00,,SKC,0.00,VWS V14.01,2013-01-26 22:30:00,
2013-01-26 16:35:00,19.4,11.2,30.28,SE,128,1.0,3.0,70,0.00,,SKC,0.00,VWS V14.01,2013-01-26 22:35:00,
2013-01-26 16:40:00,19.3,10.8,30.28,SE,139,1.0,2.0,69,0.00,,SKC,0.00,VWS V14.01,2013-01-26 22:40:00,
2013-01-26 16:45:00,19.2,11.0,30.28,ESE,113,2.0,2.0,70,0.00,,SKC,0.00,VWS V14.01,2013-01-26 22:45:00,
2013-01-26 16:50:00,19.0,11.2,30.27,ESE,118,2.0,2.0,71,0.00,,SKC,0.00,VWS V14.01,2013-01-26 22:50:00,
2013-01-26 16:55:00,18.9,11.1,30.27,SE,127,1.0,2.0,71,0.00,,SKC,0.00,VWS V14.01,2013-01-26 22:55:00,
2013-01-26 17:00:00,18.8,11.0,30.27,SSE,164,0.0,3.0,71,0.00,,SKC,0.00,VWS V14.01,2013-01-26 23:00:00,
2013-01-26 17:05:00,18.6,10.8,30.28,ESE,113,1.0,1.0,71,0.00,,SKC,0.00,VWS V14.01,2013-01-26 23:05:00,
2013-01-26 17:10:00,18.5,10.4,30.28,SSE,150,1.0,2.0,70,0.00,,SKC,0.00,VWS V14.01,2013-01-26 23:10:00,
2013-01-26 17:15:00,18.4,10.6,30.28,SE,128,2.0,2.0,71,0.00,,SKC,0.00,VWS V14.01,2013-01-26 23:15:00,
2013-01-26 17:20:00,18.3,10.2,30.27,SSE,163,2.0,2.0,70,0.00,,SKC,0.00,VWS V14.01,2013-01-26 23:20:00,
2013-01-26 17:25:00,18.1,10.0,30.27,SE,141,1.0,2.0,70,0.00,,SKC,0.00,VWS V14.01,2013-01-26 23:25:00,
2013-01-26 17:30:00,18.0,10.2,30.27,SE,127,0.0,1.0,71,0.00,,SKC,0.00,VWS V14.01,2013-01-26 23:30:00,
2013-01-26 17:35:00,17.9,10.1,30.28,SSE,156,1.0,2.0,71,0.00,,SKC,0.00,VWS V14.01,2013-01-26 23:35:00,
2013-01-26 17:40:00,17.8,10.0,30.28,ESE,121,1.0,1.0,71,0.00,,SKC,0.00,VWS V14.01,2013-01-26 23:40:00,
2013-01-26 17:45:00,17.7,10.2,30.28,South,191,1.0,2.0,72,0.00,,SKC,0.00,VWS V14.01,2013-01-26 23:45:00,
2013-01-26 17:50:00,17.7,9.9,30.27,South,175,1.0,2.0,71,0.00,,SKC,0.00,VWS V14.01,2013-01-26 23:50:00,
2013-01-26 17:55:00,17.6,10.1,30.27,SSE,149,2.0,2.0,72,0.00,,SKC,0.00,VWS V14.01,2013-01-26 23:55:00,
2013-01-26 18:00:00,17.6,10.1,30.27,SSE,161,1.0,1.0,72,0.00,,SKC,0.00,VWS V14.01,2013-01-27 00:00:00,
2013-01-26 18:05:00,17.5,10.3,30.27,SSE,153,1.0,3.0,73,0.00,,SKC,0.00,VWS V14.01,2013-01-27 00:05:00,
2013-01-26 18:10:00,17.4,10.2,30.27,South,183,1.0,2.0,73,0.00,,SKC,0.00,VWS V14.01,2013-01-27 00:10:00,
2013-01-26 18:15:00,17.3,10.1,30.27,SSW,205,0.0,2.0,73,0.00,,SKC,0.00,VWS V14.01,2013-01-27 00:15:00,
2013-01-26 18:20:00,17.3,10.1,30.27,SSE,164,2.0,2.0,73,0.00,,SKC,0.00,VWS V14.01,2013-01-27 00:20:00,
2013-01-26 18:25:00,17.2,10.4,30.27,SSW,205,0.0,2.0,74,0.00,,SKC,0.00,VWS V14.01,2013-01-27 00:25:00,
2013-01-26 18:30:00,17.1,10.3,30.27,SE,139,1.0,2.0,74,0.00,,SKC,0.00,VWS V14.01,2013-01-27 00:30:00,
2013-01-26 18:35:00,17.1,10.3,30.27,SE,138,1.0,1.0,74,0.00,,SKC,0.00,VWS V14.01,2013-01-27 00:35:00,
2013-01-26 18:40:00,17.1,10.3,30.27,ESE,119,0.0,1.0,74,0.00,,SKC,0.00,VWS V14.01,2013-01-27 00:40:00,
2013-01-26 18:45:00,17.1,10.3,30.27,ESE,119,1.0,2.0,74,0.00,,SKC,0.00,VWS V14.01,2013-01-27 00:45:00,
2013-01-26 18:50:00,17.1,10.6,30.26,SSE,148,1.0,2.0,75,0.00,,SKC,0.00,VWS V14.01,2013-01-27 00:50:00,
2013-01-26 18:55:00,17.1,10.6,30.26,ESE,122,0.0,1.0,75,0.00,,SKC,0.00,VWS V14.01,2013-01-27 00:55:00,
2013-01-26 19:00:00,17.1,10.6,30.26,SE,140,1.0,1.0,75,0.00,,SKC,0.00,VWS V14.01,2013-01-27 01:00:00,
2013-01-26 19:05:00,17.2,10.6,30.26,SE,128,0.0,1.0,75,0.00,,SKC,0.00,VWS V14.01,2013-01-27 01:05:00,
2013-01-26 19:10:00,17.3,10.8,30.26,SE,128,1.0,1.0,75,0.00,,SKC,0.00,VWS V14.01,2013-01-27 01:10:00,
2013-01-26 19:15:00,17.3,10.8,30.26,ESE,110,2.0,2.0,75,0.00,,SKC,0.00,VWS V14.01,2013-01-27 01:15:00,
2013-01-26 19:20:00,17.3,11.1,30.26,SE,126,1.0,3.0,76,0.00,,SKC,0.00,VWS V14.01,2013-01-27 01:20:00,
2013-01-26 19:25:00,17.3,11.1,30.26,ESE,107,1.0,2.0,76,0.00,,SKC,0.00,VWS V14.01,2013-01-27 01:25:00,
2013-01-26 19:30:00,17.3,11.1,30.26,ESE,119,0.0,1.0,76,0.00,,SKC,0.00,VWS V14.01,2013-01-27 01:30:00,
2013-01-26 19:35:00,17.3,11.1,30.26,ESE,113,2.0,2.0,76,0.00,,SKC,0.00,VWS V14.01,2013-01-27 01:35:00,
2013-01-26 19:40:00,17.3,11.1,30.26,ESE,122,3.0,3.0,76,0.00,,SKC,0.00,VWS V14.01,2013-01-27 01:40:00,
2013-01-26 19:45:00,17.3,11.1,30.26,SE,134,1.0,3.0,76,0.00,,SKC,0.00,VWS V14.01,2013-01-27 01:45:00,
2013-01-26 19:50:00,17.4,11.1,30.25,ESE,121,3.0,3.0,76,0.00,,SKC,0.00,VWS V14.01,2013-01-27 01:50:00,
2013-01-26 19:55:00,17.4,11.1,30.25,ESE,122,2.0,3.0,76,0.00,,SKC,0.00,VWS V14.01,2013-01-27 01:55:00,
2013-01-26 20:00:00,17.4,11.1,30.25,SE,133,2.0,3.0,76,0.00,,SKC,0.00,VWS V14.01,2013-01-27 02:00:00,
2013-01-26 20:05:00,17.5,11.2,30.24,ESE,117,3.0,3.0,76,0.00,,SKC,0.00,VWS V14.01,2013-01-27 02:05:00,
2013-01-26 20:10:00,17.5,11.2,30.24,SE,133,1.0,3.0,76,0.00,,SKC,0.00,VWS V14.01,2013-01-27 02:10:00,
2013-01-26 20:15:00,17.5,11.2,30.24,SE,126,2.0,4.0,76,0.00,,SKC,0.00,VWS V14.01,2013-01-27 02:15:00,
2013-01-26 20:20:00,17.6,11.3,30.23,SSE,157,3.0,4.0,76,0.00,,SKC,0.00,VWS V14.01,2013-01-27 02:20:00,
2013-01-26 20:25:00,17.6,11.3,30.23,SE,144,1.0,4.0,76,0.00,,SKC,0.00,VWS V14.01,2013-01-27 02:25:00,
2013-01-26 20:30:00,17.7,11.4,30.23,SSE,150,2.0,4.0,76,0.00,,SKC,0.00,VWS V14.01,2013-01-27 02:30:00,
2013-01-26 20:35:00,17.6,11.3,30.22,SSE,148,3.0,5.0,76,0.00,,SKC,0.00,VWS V14.01,2013-01-27 02:35:00,
2013-01-26 20:40:00,17.7,11.4,30.22,ESE,118,3.0,3.0,76,0.00,,SKC,0.00,VWS V14.01,2013-01-27 02:40:00,
2013-01-26 20:45:00,17.7,11.4,30.22,SE,141,3.0,8.0,76,0.00,,SKC,0.00,VWS V14.01,2013-01-27 02:45:00,
2013-01-26 20:50:00,17.8,11.2,30.23,ESE,117,2.0,2.0,75,0.00,,SKC,0.00,VWS V14.01,2013-01-27 02:50:00,
2013-01-26 20:55:00,17.7,11.4,30.23,ESE,119,2.0,2.0,76,0.00,,SKC,0.00,VWS V14.01,2013-01-27 02:55:00,
2013-01-26 21:00:00,17.7,11.4,30.23,SE,136,3.0,3.0,76,0.00,,SKC,0.00,VWS V14.01,2013-01-27 03:00:00,
2013-01-26 21:05:00,17.8,11.5,30.24,ESE,121,2.0,4.0,76,0.00,,SKC,0.00,VWS V14.01,2013-01-27 03:05:00,
2013-01-26 21:10:00,17.8,11.5,30.24,ESE,121,2.0,3.0,76,0.00,,SKC,0.00,VWS V14.01,2013-01-27 03:10:00,
2013-01-26 21:15:00,18.0,11.7,30.26,SSE,165,2.0,3.0,76,0.00,,SKC,0.00,VWS V14.01,2013-01-27 03:15:00,
2013-01-26 21:16:00,17.8,11.2,30.24,SE,130,2.0,5.0,75,0.00,,SKC,0.00,VWS V14.01,2013-01-27 03:16:00,
2013-01-26 21:20:00,18.1,11.5,30.26,SSE,156,1.0,4.0,75,0.00,,SKC,0.00,VWS V14.01,2013-01-27 03:20:00,
2013-01-26 21:21:00,17.9,11.3,30.24,SE,144,2.0,4.0,75,0.00,,SKC,0.00,VWS V14.01,2013-01-27 03:21:00,
2013-01-26 21:25:00,18.1,11.8,30.26,SE,136,2.0,3.0,76,0.00,,SKC,0.00,VWS V14.01,2013-01-27 03:25:00,
2013-01-26 21:26:00,17.9,11.3,30.24,SSE,152,3.0,6.0,75,0.00,,SKC,0.00,VWS V14.01,2013-01-27 03:26:00,
2013-01-26 21:30:00,18.1,11.5,30.26,SE,130,2.0,4.0,75,0.00,,SKC,0.00,VWS V14.01,2013-01-27 03:30:00,
2013-01-26 21:31:00,17.9,11.3,30.24,SE,137,1.0,3.0,75,0.00,,SKC,0.00,VWS V14.01,2013-01-27 03:31:00,
2013-01-26 21:35:00,18.1,11.5,30.26,ESE,123,2.0,3.0,75,0.00,,SKC,0.00,VWS V14.01,2013-01-27 03:35:00,
2013-01-26 21:36:00,17.9,11.3,30.24,SE,128,3.0,3.0,75,0.00,,SKC,0.00,VWS V14.01,2013-01-27 03:36:00,
2013-01-26 21:40:00,18.1,11.5,30.26,ESE,122,2.0,4.0,75,0.00,,SKC,0.00,VWS V14.01,2013-01-27 03:40:00,
2013-01-26 21:41:00,17.9,11.3,30.24,SE,130,3.0,4.0,75,0.00,,SKC,0.00,VWS V14.01,2013-01-27 03:41:00,
2013-01-26 21:45:00,18.1,11.8,30.25,SE,134,2.0,3.0,76,0.00,,SKC,0.00,VWS V14.01,2013-01-27 03:45:00,
2013-01-26 21:46:00,17.9,11.3,30.24,ESE,122,3.0,3.0,75,0.00,,SKC,0.00,VWS V14.01,2013-01-27 03:46:00,
2013-01-26 21:50:00,18.0,11.7,30.25,ESE,119,3.0,5.0,76,0.00,,SKC,0.00,VWS V14.01,2013-01-27 03:50:00,
2013-01-26 21:51:00,17.9,11.3,30.24,ESE,123,2.0,4.0,75,0.00,,SKC,0.00,VWS V14.01,2013-01-27 03:51:00,
2013-01-26 21:55:00,18.1,11.8,30.25,SE,137,2.0,4.0,76,0.00,,SKC,0.00,VWS V14.01,2013-01-27 03:55:00,
2013-01-26 21:56:00,17.9,11.3,30.24,SSE,155,3.0,4.0,75,0.00,,SKC,0.00,VWS V14.01,2013-01-27 03:56:00,
2013-01-26 22:00:00,18.1,11.8,30.24,SE,136,1.0,4.0,76,0.00,,SKC,0.00,VWS V14.01,2013-01-27 04:00:00,
2013-01-26 22:01:00,18.0,11.4,30.24,SSW,199,2.0,4.0,75,0.00,,SKC,0.00,VWS V14.01,2013-01-27 04:01:00,
2013-01-26 22:05:00,18.1,11.5,30.24,ESE,110,3.0,4.0,75,0.00,,SKC,0.00,VWS V14.01,2013-01-27 04:05:00,
2013-01-26 22:06:00,18.0,11.7,30.25,SE,142,1.0,2.0,76,0.00,,SKC,0.00,VWS V14.01,2013-01-27 04:06:00,
2013-01-26 22:10:00,18.2,11.6,30.24,SE,141,1.0,5.0,75,0.00,,SKC,0.00,VWS V14.01,2013-01-27 04:10:00,
2013-01-26 22:11:00,18.0,11.7,30.25,SE,128,2.0,2.0,76,0.00,,SKC,0.00,VWS V14.01,2013-01-27 04:11:00,
2013-01-26 22:15:00,18.2,11.6,30.24,ESE,103,5.0,5.0,75,0.00,,SKC,0.00,VWS V14.01,2013-01-27 04:15:00,
2013-01-26 22:16:00,18.0,11.7,30.25,SSE,155,2.0,3.0,76,0.00,,SKC,0.00,VWS V14.01,2013-01-27 04:16:00,
2013-01-26 22:20:00,18.2,11.6,30.24,SE,138,1.0,5.0,75,0.00,,SKC,0.00,VWS V14.01,2013-01-27 04:20:00,
2013-01-26 22:21:00,18.1,11.5,30.26,ESE,122,2.0,3.0,75,0.00,,SKC,0.00,VWS V14.01,2013-01-27 04:21:00,
2013-01-26 22:25:00,18.3,11.7,30.24,SE,126,3.0,4.0,75,0.00,,SKC,0.00,VWS V14.01,2013-01-27 04:25:00,
2013-01-26 22:26:00,18.1,11.8,30.26,SE,126,1.0,3.0,76,0.00,,SKC,0.00,VWS V14.01,2013-01-27 04:26:00,
2013-01-26 22:30:00,18.3,11.7,30.24,SE,141,2.0,4.0,75,0.00,,SKC,0.00,VWS V14.01,2013-01-27 04:30:00,
2013-01-26 22:31:00,18.0,11.4,30.26,SE,130,1.0,3.0,75,0.00,,SKC,0.00,VWS V14.01,2013-01-27 04:31:00,
2013-01-26 22:35:00,18.3,11.7,30.24,SSE,152,1.0,3.0,75,0.00,,SKC,0.00,VWS V14.01,2013-01-27 04:35:00,
2013-01-26 22:36:00,18.1,11.5,30.26,SSE,155,2.0,3.0,75,0.00,,SKC,0.00,VWS V14.01,2013-01-27 04:36:00,
2013-01-26 22:40:00,18.3,11.7,30.24,SE,135,1.0,3.0,75,0.00,,SKC,0.00,VWS V14.01,2013-01-27 04:40:00,
2013-01-26 22:41:00,18.0,11.4,30.26,ESE,120,3.0,4.0,75,0.00,,SKC,0.00,VWS V14.01,2013-01-27 04:41:00,
2013-01-26 22:45:00,18.3,11.7,30.24,SE,133,2.0,3.0,75,0.00,,SKC,0.00,VWS V14.01,2013-01-27 04:45:00,
2013-01-26 22:46:00,18.1,11.8,30.26,SSE,161,2.0,3.0,76,0.00,,SKC,0.00,VWS V14.01,2013-01-27 04:46:00,
2013-01-26 22:50:00,18.3,11.7,30.24,SSE,165,2.0,3.0,75,0.00,,SKC,0.00,VWS V14.01,2013-01-27 04:50:00,
2013-01-26 22:51:00,18.1,11.8,30.25,SE,128,5.0,5.0,76,0.00,,SKC,0.00,VWS V14.01,2013-01-27 04:51:00,
2013-01-26 22:55:00,18.3,11.4,30.24,South,191,2.0,4.0,74,0.00,,SKC,0.00,VWS V14.01,2013-01-27 04:55:00,
2013-01-26 22:56:00,18.1,11.8,30.25,ESE,118,3.0,4.0,76,0.00,,SKC,0.00,VWS V14.01,2013-01-27 04:56:00,
2013-01-26 23:00:00,18.1,11.8,30.25,SE,141,2.0,3.0,76,0.00,,SKC,0.00,VWS V14.01,2013-01-27 05:00:00,
2013-01-26 23:01:00,18.1,11.8,30.25,ESE,117,2.0,3.0,76,0.00,,SKC,0.00,VWS V14.01,2013-01-27 05:01:00,
2013-01-26 23:03:00,18.1,11.5,30.24,SE,144,2.0,3.0,75,0.00,,SKC,0.00,VWS V14.01,2013-01-27 05:03:00,
2013-01-26 23:05:00,18.4,11.8,30.23,SE,134,2.0,4.0,75,0.00,,SKC,0.00,VWS V14.01,2013-01-27 05:05:00,
2013-01-26 23:08:00,18.1,11.8,30.24,SE,125,4.0,5.0,76,0.00,,SKC,0.00,VWS V14.01,2013-01-27 05:08:00,
2013-01-26 23:10:00,18.4,11.5,30.23,SE,135,3.0,4.0,74,0.00,,SKC,0.00,VWS V14.01,2013-01-27 05:10:00,
2013-01-26 23:13:00,18.1,11.5,30.24,ESE,107,2.0,4.0,75,0.00,,SKC,0.00,VWS V14.01,2013-01-27 05:13:00,
2013-01-26 23:15:00,18.4,11.5,30.22,ESE,110,4.0,7.0,74,0.00,,SKC,0.00,VWS V14.01,2013-01-27 05:15:00,
2013-01-26 23:18:00,18.2,11.6,30.24,ESE,123,3.0,5.0,75,0.00,,SKC,0.00,VWS V14.01,2013-01-27 05:18:00,
2013-01-26 23:20:00,18.4,11.5,30.22,SE,132,2.0,5.0,74,0.00,,SKC,0.00,VWS V14.01,2013-01-27 05:20:00,
2013-01-26 23:23:00,18.3,11.7,30.24,WSW,245,4.0,4.0,75,0.00,,SKC,0.00,VWS V14.01,2013-01-27 05:23:00,
2013-01-26 23:25:00,18.4,11.5,30.22,SE,128,2.0,5.0,74,0.00,,SKC,0.00,VWS V14.01,2013-01-27 05:25:00,
2013-01-26 23:28:00,18.3,11.7,30.24,SE,130,1.0,4.0,75,0.00,,SKC,0.00,VWS V14.01,2013-01-27 05:28:00,
2013-01-26 23:30:00,18.4,11.5,30.21,ESE,113,5.0,5.0,74,0.00,,SKC,0.00,VWS V14.01,2013-01-27 05:30:00,
2013-01-26 23:33:00,18.3,11.7,30.24,SE,126,2.0,2.0,75,0.00,,SKC,0.00,VWS V14.01,2013-01-27 05:33:00,
2013-01-26 23:35:00,18.3,11.1,30.21,ESE,115,2.0,7.0,73,0.00,,SKC,0.00,VWS V14.01,2013-01-27 05:35:00,
2013-01-26 23:38:00,18.3,11.7,30.24,SSE,148,2.0,3.0,75,0.00,,SKC,0.00,VWS V14.01,2013-01-27 05:38:00,
2013-01-26 23:40:00,18.4,11.5,30.21,SE,138,2.0,5.0,74,0.00,,SKC,0.00,VWS V14.01,2013-01-27 05:40:00,
2013-01-26 23:43:00,18.3,11.7,30.24,ESE,119,3.0,3.0,75,0.00,,SKC,0.00,VWS V14.01,2013-01-27 05:43:00,
2013-01-26 23:45:00,18.4,11.5,30.21,SSE,150,4.0,4.0,74,0.00,,SKC,0.00,VWS V14.01,2013-01-27 05:45:00,
2013-01-26 23:48:00,18.4,11.8,30.24,SE,128,2.0,3.0,75,0.00,,SKC,0.00,VWS V14.01,2013-01-27 05:48:00,
2013-01-26 23:50:00,18.4,11.5,30.21,SE,142,2.0,5.0,74,0.00,,SKC,0.00,VWS V14.01,2013-01-27 05:50:00,
2013-01-26 23:53:00,18.3,11.7,30.24,ESE,119,2.0,2.0,75,0.00,,SKC,0.00,VWS V14.01,2013-01-27 05:53:00,
2013-01-26 23:55:00,18.4,11.5,30.21,East,89,1.0,3.0,74,0.00,,SKC,0.00,VWS V14.01,2013-01-27 05:55:00,
2013-01-26 23:58:00,18.3,11.4,30.24,SE,125,2.0,3.0,74,0.00,,SKC,0.00,VWS V14.01,2013-01-27 05:58:00,